sat.trackr.live / text

‹ back to catalog

KINEIS-3A

NORAD 61223 · 2024-172D

PAYLOAD ACTIVE UNKNOWN

§ Identity

Operator
Country
FR
Launch date
2024-09-20
Launch site
RLLB
Launch vehicle
Mass (kg)
RCS (m²)

External: N2YO · Heavens-Above · Gunter

§ Orbital elements

Epoch: 2026-05-25T04:44:16.904832Z

Period
97.81 min
Inclination
98.0413°
Eccentricity
0.0002914
Mean motion
14.72313101 rev/d
Perigee alt
651.6 km
Apogee alt
655.7 km
Semi-major
7,031.8 km
B*
2.7739e-4
RAAN
235.4348°
Arg perigee
139.1507°
Mean anomaly
220.9919°
Rev number
8,939

§ Raw data

KINEIS-3A1 61223U 24172D   26145.19741788  .00001704  00000+0  27739-3 0  99952 61223  98.0413 235.4348 0002914 139.1507 220.9919 14.72313101 89396

JSON: /api/v1/satellites/61223 · /tle

For live sub-satellite position, see the globe view (requires WebGL).

§ Visibility from observer

Set your observer location to see the next 7 days of passes ≥ 10°. The values pass through the URL so the page stays shareable.

No JS? Fill the form by hand. The geolocation button needs JavaScript.

§ Radio — SatNOGS DB

ModeDescriptionDownlinkUplink
BPSK S-band telemetry 2.265 GHz
FM Telemetry 400.662 MHz

2 transmitters · refreshed weekly from db.satnogs.org